[[{"header":{"parameterUnit":"m.s-1","parameterCategory":1,"la1":30.2991,"la2":30.254,"lo1":-89.0895,"lo2":-89.0444,"dy":0.0017,"dx":0.0017,"nx":28,"ny":28,"refTime":"2024-04-03T21:00:00:Z","depth":0,"parameterNumber":2,"parameterNumberName":"U-component_of_WINDS"},"data":[0,0,0,0,0,0,0,0,0,0,0,0,0,0,0,0,0,0,0,0,0,0,0,0,0,0,0,0,0,0,0,0,0,0,0,0,0,0,0,0,0,0,0,0,0,0,0,0,0,0,0,0,0,0,0,0,0,0,3.837,3.8371,0,3.8427,3.8428,3.8428,3.8426,3.8425,3.8424,3.8423,3.848,3.8482,3.8484,0,0,0,0,0,0,0,0,0,0,0,0,0,3.826,3.8262,3.837,3.8371,3.8372,3.8427,3.8428,3.8429,3.8426,3.8425,3.8424,3.8423,3.8479,3.8482,3.8485,0,0,0,0,0,0,0,0,0,0,0,0,0,3.8311,3.8263,3.837,3.8377,3.8378,3.8427,3.8428,3.8429,3.8426,3.8425,3.8423,3.8422,3.8478,3.8482,3.8485,3.853,0,0,3.8495,3.8497,0,0,0,0,0,0,0,0,3.8308,3.8315,3.8375,3.8377,3.8378,3.8418,3.841,3.8463,3.8426,3.8408,3.8423,3.8422,3.846,3.8465,3.8478,3.8533,3.8535,3.8496,3.8498,3.8499,3.85,0,0,0,0,0,0,0,3.8305,3.8313,3.8393,3.8376,3.8378,3.8377,3.8383,3.842,3.844,3.8409,3.8409,3.8416,3.8461,3.8475,3.848,3.8536,3.8496,3.8499,3.8501,3.8502,3.8634,3.8635,0,0,0,0,0,0,3.83,3.831,3.8391,3.8395,3.834,3.838,3.8387,3.8406,3.844,3.8444,3.8417,3.8416,3.847,3.8476,3.8482,3.8538,3.8499,3.8502,3.8504,3.8632,3.8634,3.8636,0,0,0,0,0,0,3.8298,3.8307,3.8389,3.8352,3.8363,3.8384,3.8405,3.8408,3.8422,3.8446,3.8449,3.8428,3.8469,3.8477,3.8519,3.854,3.8504,3.8507,3.863,3.8633,3.8635,3.8651,0,0,0,0,0,0,3.8294,3.8306,3.8323,3.8353,3.8365,3.8425,3.8407,3.841,3.8429,3.8427,3.8457,3.846,3.8469,3.8514,3.8522,3.8544,3.851,3.8629,3.8631,3.8634,3.8649,3.8654,3.8658,0,0,0,0,0,3.829,3.8325,3.8324,3.8334,3.8387,3.8426,3.8433,3.8442,3.843,3.8448,3.8463,3.8459,3.8537,3.8518,3.8528,3.8551,3.8627,3.8631,3.8634,3.8647,3.8653,3.8658,0,0,0,0,0,0,3.8297,3.8329,3.8328,3.8373,3.8397,3.8425,3.8448,3.8448,3.8475,3.8473,3.8483,3.8489,3.8532,3.8546,3.8524,3.8598,3.8581,3.8586,3.8587,3.8593,3.8598,3.8593,3.8513,0,0,0,0,0,3.8303,3.8333,3.8359,3.8397,3.8409,3.8427,3.8444,3.8449,3.8474,3.8484,3.8502,3.8526,3.8556,3.8575,3.8604,3.8651,3.8658,3.8672,3.8677,3.868,3.8685,3.8713,3.872,3.8646,3.8646,3.8646,0,0,3.8317,3.8339,3.8356,3.8399,3.8418,3.8448,3.8435,3.8467,3.849,3.8489,3.853,3.8544,3.8572,3.8618,3.8638,3.863,3.8707,3.8685,3.8687,3.869,3.8717,3.8724,3.873,3.8648,3.8648,3.8648,0,0,3.8358,3.8377,3.8411,3.8431,3.8461,3.8473,3.8481,3.851,3.852,3.8562,3.8562,3.8589,3.864,3.8661,3.8677,3.873,3.8728,3.8739,3.8762,3.8789,3.8795,3.88,3.882,3.8827,3.8743,3.8743,3.8743,0,3.8372,3.8418,3.8428,3.8462,3.8481,3.8483,3.8518,3.8536,3.8573,3.8587,3.8577,3.8643,3.8662,3.8713,3.8726,3.8739,3.875,3.8735,3.8793,3.8799,3.8804,3.8822,3.883,3.8744,3.8744,3.8744,3.8744,0,3.8434,3.8466,3.849,3.8528,3.8549,3.8583,3.86,3.8621,3.8625,3.8638,3.8682,3.8705,3.8739,3.8751,3.8755,3.8804,3.8798,3.8791,3.8774,3.8812,3.883,3.8837,3.8746,3.8745,3.8745,3.8745,0,0,3.8479,3.8523,3.8532,3.855,3.8584,3.8609,3.8644,3.8678,3.8697,3.8723,3.8753,3.8797,3.8792,3.8811,3.8817,3.8841,3.8883,3.8831,3.8832,3.8841,3.894,3.8945,3.8953,3.8882,3.8884,3.8885,3.8938,0,3.8524,3.8586,3.8598,3.8652,3.8683,3.8686,3.8717,3.8741,3.8755,3.8784,3.8799,3.8831,3.882,3.8832,3.8856,3.8873,3.8903,3.8869,3.8911,3.8912,3.8904,3.8963,3.8968,3.9017,3.8945,3.8946,3.8947,0,3.8585,3.8614,3.8672,3.8704,3.8717,3.8744,3.8778,3.8805,3.8834,3.8842,3.8865,3.887,3.8907,3.8889,3.8941,3.8918,3.8936,3.8947,3.8949,3.8953,3.8932,3.8969,3.9033,3.904,3.8958,3.8957,3.8956,0,3.8613,3.8667,3.8709,3.8724,3.8762,3.8781,3.8798,3.8825,3.8846,3.8876,3.8889,3.8923,3.8941,3.8967,3.8981,3.8966,3.9032,3.9015,3.9041,3.9041,3.9055,3.9054,3.9122,3.9066,3.9066,3.9065,3.9065,0,3.8663,3.8698,3.8723,3.8748,3.8789,3.8802,3.8842,3.8858,3.8883,3.8913,3.8917,3.8945,3.8961,3.8992,3.9003,3.9045,3.9053,3.9062,3.9064,3.9061,3.906,3.9073,3.907,3.9067,3.9067,3.9067,3.9066,0,3.8701,3.8718,3.8765,3.8798,3.8807,3.8835,3.8864,3.8889,3.8904,3.8942,3.8951,3.8974,3.9011,3.9027,3.9071,3.9079,3.9128,3.9128,3.9118,3.9119,3.9145,3.9143,3.9225,3.9237,3.9172,3.9172,3.9173,0,3.8731,3.8759,3.8796,3.8816,3.8834,3.8866,3.8888,3.8903,3.8926,3.8962,3.8983,3.902,3.905,3.9108,3.9129,3.9164,3.9165,3.9191,3.917,3.9167,3.9166,3.9165,3.9168,3.9195,3.9196,3.9196,3.9197,0,3.8784,3.8792,3.8823,3.8859,3.8885,3.8913,3.894,3.8957,3.8977,3.9002,3.904,3.9063,3.911,3.9147,3.9183,3.9201,3.9203,3.9204,3.9212,3.9209,3.9203,3.9208,3.913,3.9201,3.9201,3.92,3.92,3.92,3.882,3.8846,3.8876,3.8911,3.8934,3.896,3.8987,3.9006,3.9037,3.9077,3.9084,3.9125,3.9154,3.9204,3.9223,3.9255,3.9249,3.926,3.9263,3.9266,3.9268,3.9198,3.9262,3.9262,3.9262,3.9262,3.9261,0,3.8874,3.8894,3.8927,3.8966,3.8994,3.8994,3.9026,3.9049,3.9085,3.9113,3.9143,3.9188,3.9224,3.9249,3.9286,3.9307,3.9309,3.9316,3.9315,3.9319,3.9271,3.9261,3.9314,3.9314,3.9314,3.9314,3.9314,3.9314,3.8905,3.8949,3.8961,3.9017,3.9037,3.9077,3.9095,3.912,3.9142,3.9192,3.9222,3.9239,3.9266,3.9305,3.9339,3.9346,3.9359,3.9367,3.9373,3.9328,3.9322,3.9317,3.9308,3.937,3.937,3.9419,3.9419,3.942]},{"header":{"parameterUnit":"m.s-1","parameterCategory":1,"la1":30.2991,"la2":30.254,"lo1":-89.0895,"lo2":-89.0444,"dy":0.0017,"dx":0.0017,"nx":28,"ny":28,"refTime":"2024-04-03T21:00:00:Z","depth":0,"parameterNumber":3,"parameterNumberName":"V-component_of_WINDS"},"data":[0,0,0,0,0,0,0,0,0,0,0,0,0,0,0,0,0,0,0,0,0,0,0,0,0,0,0,0,0,0,0,0,0,0,0,0,0,0,0,0,0,0,0,0,0,0,0,0,0,0,0,0,0,0,0,0,0,0,-6.1624,-6.1624,0,-6.1631,-6.1631,-6.1631,-6.1627,-6.1627,-6.1627,-6.1627,-6.163,-6.1631,-6.1631,0,0,0,0,0,0,0,0,0,0,0,0,0,-6.1606,-6.1606,-6.1624,-6.1624,-6.1624,-6.1631,-6.1631,-6.1631,-6.1627,-6.1627,-6.1627,-6.1626,-6.163,-6.1631,-6.1631,0,0,0,0,0,0,0,0,0,0,0,0,0,-6.1613,-6.1606,-6.1624,-6.1623,-6.1623,-6.1631,-6.1631,-6.1631,-6.1627,-6.1627,-6.1627,-6.1626,-6.163,-6.1631,-6.1631,-6.1639,0,0,-6.1632,-6.1632,0,0,0,0,0,0,0,0,-6.1613,-6.1614,-6.1623,-6.1623,-6.1623,-6.1628,-6.1626,-6.1634,-6.1627,-6.1626,-6.1627,-6.1626,-6.163,-6.163,-6.1632,-6.1639,-6.1639,-6.1632,-6.1633,-6.1633,-6.1633,0,0,0,0,0,0,0,-6.1612,-6.1613,-6.1627,-6.1623,-6.1623,-6.1622,-6.1623,-6.1627,-6.1629,-6.1626,-6.1625,-6.1626,-6.163,-6.1631,-6.1632,-6.1639,-6.1632,-6.1633,-6.1633,-6.1633,-6.1655,-6.1655,0,0,0,0,0,0,-6.1612,-6.1613,-6.1626,-6.1627,-6.1617,-6.1622,-6.1623,-6.1627,-6.1629,-6.1629,-6.1627,-6.1626,-6.1631,-6.1631,-6.1632,-6.1642,-6.1633,-6.1633,-6.1633,-6.1655,-6.1655,-6.1656,0,0,0,0,0,0,-6.1612,-6.1613,-6.1626,-6.162,-6.1622,-6.1623,-6.1627,-6.1627,-6.1629,-6.163,-6.163,-6.1629,-6.1631,-6.1631,-6.1638,-6.1642,-6.1633,-6.1634,-6.1654,-6.1655,-6.1655,-6.1662,0,0,0,0,0,0,-6.1611,-6.1613,-6.1616,-6.162,-6.1622,-6.1632,-6.1627,-6.1627,-6.163,-6.1629,-6.1631,-6.1631,-6.1631,-6.1637,-6.1638,-6.1643,-6.1634,-6.1654,-6.1655,-6.1655,-6.1662,-6.1663,-6.1664,0,0,0,0,0,-6.161,-6.1617,-6.1617,-6.1618,-6.1626,-6.1633,-6.1634,-6.1633,-6.163,-6.1634,-6.1634,-6.1631,-6.1642,-6.1638,-6.1639,-6.1644,-6.1654,-6.1654,-6.1655,-6.1661,-6.1663,-6.1664,0,0,0,0,0,0,-6.1612,-6.1617,-6.1617,-6.1625,-6.1629,-6.1632,-6.1636,-6.1635,-6.1638,-6.1638,-6.1636,-6.1637,-6.1644,-6.1644,-6.164,-6.1652,-6.1647,-6.1648,-6.1651,-6.1653,-6.1654,-6.1653,-6.1634,0,0,0,0,0,-6.1614,-6.162,-6.1624,-6.163,-6.1632,-6.1634,-6.1637,-6.1637,-6.164,-6.1641,-6.1642,-6.1644,-6.1648,-6.1651,-6.1654,-6.1662,-6.1662,-6.1666,-6.1667,-6.1668,-6.1669,-6.1673,-6.1675,-6.1658,-6.1658,-6.1658,0,0,-6.1617,-6.162,-6.1624,-6.1631,-6.1634,-6.1639,-6.1635,-6.1641,-6.1644,-6.1641,-6.1648,-6.1649,-6.1652,-6.1659,-6.1662,-6.166,-6.1674,-6.1669,-6.167,-6.167,-6.1674,-6.1676,-6.1677,-6.1659,-6.1658,-6.1658,0,0,-6.1625,-6.1628,-6.1635,-6.1638,-6.1643,-6.1644,-6.1646,-6.165,-6.1651,-6.1658,-6.1656,-6.1661,-6.1667,-6.1669,-6.1671,-6.1683,-6.168,-6.1684,-6.169,-6.1695,-6.1696,-6.1697,-6.1701,-6.1702,-6.1685,-6.1685,-6.1685,0,-6.1627,-6.1636,-6.1638,-6.1644,-6.1648,-6.1647,-6.1653,-6.1656,-6.1661,-6.1664,-6.1661,-6.1671,-6.1672,-6.1681,-6.1684,-6.1685,-6.1687,-6.1683,-6.1696,-6.1697,-6.1698,-6.1702,-6.1703,-6.1685,-6.1685,-6.1685,-6.1685,0,-6.1639,-6.1645,-6.165,-6.1657,-6.1661,-6.1667,-6.167,-6.1673,-6.1674,-6.1675,-6.1683,-6.1685,-6.169,-6.1692,-6.1691,-6.17,-6.1699,-6.1696,-6.1691,-6.17,-6.1704,-6.1705,-6.1686,-6.1686,-6.1686,-6.1685,0,0,-6.1646,-6.1656,-6.1658,-6.1661,-6.1668,-6.1672,-6.1679,-6.1685,-6.1688,-6.1692,-6.1698,-6.1704,-6.1703,-6.1705,-6.1705,-6.1709,-6.1718,-6.1706,-6.1706,-6.1708,-6.1729,-6.173,-6.1732,-6.1717,-6.1718,-6.1718,-6.1728,0,-6.1655,-6.1667,-6.167,-6.1681,-6.1687,-6.1687,-6.1693,-6.1697,-6.17,-6.1704,-6.1706,-6.1711,-6.1709,-6.171,-6.1715,-6.1716,-6.1722,-6.1716,-6.1721,-6.1721,-6.172,-6.1734,-6.1735,-6.1745,-6.173,-6.173,-6.173,0,-6.1666,-6.1672,-6.1684,-6.1691,-6.1693,-6.1699,-6.1705,-6.171,-6.1715,-6.1716,-6.172,-6.172,-6.1727,-6.1722,-6.1731,-6.1727,-6.1729,-6.1731,-6.1731,-6.1731,-6.1726,-6.1733,-6.1748,-6.1749,-6.1732,-6.1732,-6.1732,0,-6.167,-6.1681,-6.169,-6.1693,-6.1701,-6.1705,-6.1709,-6.1714,-6.1718,-6.1723,-6.1725,-6.1731,-6.1734,-6.1738,-6.1739,-6.1736,-6.1748,-6.1744,-6.1749,-6.1749,-6.175,-6.175,-6.1765,-6.1754,-6.1754,-6.1754,-6.1753,0,-6.1679,-6.1686,-6.1692,-6.1698,-6.1706,-6.1709,-6.1717,-6.172,-6.1725,-6.173,-6.1731,-6.1736,-6.1738,-6.1743,-6.1744,-6.1752,-6.1753,-6.1754,-6.1754,-6.1753,-6.1753,-6.1754,-6.1753,-6.1754,-6.1754,-6.1754,-6.1754,0,-6.1684,-6.1689,-6.1699,-6.1707,-6.1709,-6.1714,-6.1721,-6.1726,-6.1729,-6.1736,-6.1738,-6.1742,-6.1748,-6.1751,-6.1758,-6.1759,-6.1767,-6.1767,-6.1766,-6.1766,-6.177,-6.177,-6.1786,-6.1788,-6.1776,-6.1776,-6.1776,0,-6.1689,-6.1695,-6.1704,-6.1709,-6.1713,-6.172,-6.1724,-6.1728,-6.1732,-6.174,-6.1744,-6.1751,-6.1756,-6.1766,-6.1769,-6.1775,-6.1775,-6.178,-6.1775,-6.1775,-6.1774,-6.1774,-6.1774,-6.1781,-6.1781,-6.1781,-6.1781,0,-6.1697,-6.17,-6.1707,-6.1715,-6.1721,-6.1728,-6.1734,-6.1737,-6.1742,-6.1747,-6.1754,-6.1759,-6.1767,-6.1774,-6.178,-6.1783,-6.1782,-6.1783,-6.1784,-6.1783,-6.1782,-6.1782,-6.1767,-6.1782,-6.1782,-6.1782,-6.1782,-6.1782,-6.1702,-6.1708,-6.1716,-6.1724,-6.1729,-6.1736,-6.1741,-6.1746,-6.1752,-6.176,-6.1762,-6.177,-6.1776,-6.1785,-6.1788,-6.1794,-6.1792,-6.1794,-6.1794,-6.1795,-6.1795,-6.1782,-6.1795,-6.1795,-6.1795,-6.1795,-6.1795,0,-6.1711,-6.1716,-6.1724,-6.1733,-6.174,-6.1741,-6.1748,-6.1753,-6.176,-6.1767,-6.1773,-6.1781,-6.1788,-6.1793,-6.18,-6.1803,-6.1803,-6.1805,-6.1804,-6.1805,-6.1796,-6.1794,-6.1805,-6.1805,-6.1805,-6.1805,-6.1805,-6.1805,-6.1715,-6.1725,-6.1729,-6.1741,-6.1747,-6.1755,-6.176,-6.1765,-6.177,-6.178,-6.1787,-6.179,-6.1796,-6.1803,-6.181,-6.1811,-6.1813,-6.1815,-6.1815,-6.1807,-6.1806,-6.1804,-6.1803,-6.1815,-6.1815,-6.1824,-6.1824,-6.1824]}]]